Hourly Data Report for September 06, 2019

All times are specified in Local Standard Time (LST). Add 1 hour to adjust for Daylight Saving Time where and when it is observed.

EUREKA CLIMATE
NUNAVUT
Current Station Operator: ECCC - MSC

79°59'21.000" N
85°56'02.000" W
10.00 m
2401199
71613
NEK

Download Data

Hourly Data (September 2019)
Hourly Data Report for September 6, 2019
TIME Temp Definition
°C
Dew Point Definition
°C
Rel Hum Definition
%
Wind Dir Definition
10's deg

Wind Spd Definition
km/h
Visibility Definition
km
Stn Press Definition
kPa
Hmdx Definition


Wind Chill Definition


Weather Definition


00:00 0.2 -0.7 93 33 2   101.50     LegendNANA
01:00 -0.1 -1.0 94 30 7   101.49   -3 LegendNANA
02:00 -0.1 -1.0 93 30 9   101.50   -3 LegendNANA
03:00 0.3 -0.4 95 30 10   101.51     LegendNANA
04:00 0.5 -0.6 93 30 14   101.52     LegendNANA
05:00 0.4 -0.5 93 28 13   101.52     LegendNANA
06:00 0.6 -0.6 92 29 17   101.51     LegendNANA
07:00 0.4 -0.5 93 28 18   101.53     LegendNANA
08:00 0.6 -0.4 93 28 19   101.52     LegendNANA
09:00 0.6 -0.5 92 28 21   101.52     LegendNANA
10:00 0.9 -0.8 88 28 18   101.48     LegendNANA
11:00 1.6 -1.7 79 30 9   101.50     LegendNANA
12:00 1.0 -0.9 87 29 21   101.47     LegendNANA
13:00 2.2 -1.7 75 31 5   101.45     LegendNANA
14:00 1.4 -1.3 82 29 23   101.46     LegendNANA
15:00 1.1 -0.9 87 28 25   101.42     LegendNANA
16:00 1.1 -1.5 82 28 17   101.41     LegendNANA
17:00 0.8 -1.4 85 28 30   101.37     LegendNANA
18:00 1.6 -1.1 82 24 14   101.35     LegendNANA
19:00 1.8 -1.9 76 34 15   101.35     LegendNANA
20:00 1.9 -1.1 80 35 4   101.31     LegendNANA
21:00 1.7 -1.4 80 35 6   101.29     LegendNANA
22:00 1.3 -0.7 86 34 12   101.27     LegendNANA
23:00 1.1 -0.8 87 36 14   101.24     LegendNANA

Notes on Data Quality.

Legend

  • E = Estimated
  • M = Missing
  • NA = Not Available
Date modified: